Temp
22 21 19 18 18 18 18 17 16 16 16 16 15 14 15 15 14 15 15 15 14 14 14 14 15 15 15 16 16 16 17 17
21 18 17 16 17 18 17 16 16 16 15 15 15 14 14 14 15 14 14 15 14 14 14 15 15 15 16 16 15 16 16 17
18 16 16 16 16 17 16 15 15 15 15 15 15 15 14 14 14 14 15 15 14 14 14 15 15 15 16 16 16 15 16 17
17 16 14 14 14 15 15 15 15 15 15 15 14 14 14 14 14 14 14 14 14 14 15 15 15 15 15 15 16 16 16 16
19 17 14 14 14 15 15 15 15 15 14 14 14 14 14 14 14 14 14 14 14 14 15 15 15 15 15 15 16 16 16 15
19 17 16 14 14 14 14 14 15 14 14 14 14 14 14 14 14 14 14 14 14 14 14 15 14 15 15 15 16 17 17 15
20 18 15 13 13 14 14 14 14 14 14 14 14 13 13 13 13 13 13 14 13 14 14 14 14 14 15 16 16 16 15 15
19 15 15 13 13 13 13 14 13 14 14 13 13 13 13 13 13 14 14 13 13 13 13 14 14 14 15 15 14 13 13 13
19 16 15 14 14 13 14 13 13 13 14 13 13 13 13 13 13 13 13 13 13 12 12 12 13 14 13 13 12 12 13 14
19 17 15 15 14 13 13 13 13 13 13 13 13 13 13 13 13 13 13 13 13 12 12 12 13 13 13 12 12 13 13 13
19 18 15 15 14 14 13 14 14 14 13 13 13 13 13 13 13 12 12 12 12 12 12 12 12 12 11 12 12 13 13 13
19 19 16 15 14 13 13 14 14 14 13 13 13 13 13 13 13 13 13 12 12 12 12 11 11 12 12 12 12 13 13 13
18 19 16 15 14 13 13 13 14 14 13 13 13 13 13 13 13 13 12 12 12 12 11 12 12 11 12 12 12 12 13 13
19 18 17 15 14 14 13 13 13 13 13 12 12 12 13 12 13 13 12 12 12 11 11 11 11 12 12 13 13 13 13 13
19 17 17 15 15 14 14 13 13 13 13 13 12 12 12 12 12 12 12 12 12 12 12 12 12 12 12 13 13 13 13 12
19 18 17 16 15 15 15 14 13 13 14 14 13 12 13 13 12 12 13 12 12 13 13 12 12 12 12 12 12 12 12 11
15 18 17 17 16 15 15 15 14 14 13 14 14 13 13 13 13 13 13 13 12 12 12 12 12 11 12 12 13 12 10 7
14 14 13 12 18 17 16 15 15 14 14 13 13 14 13 13 13 13 12 12 12 11 10 9 9 8 9 11 11 9 6 2
12 11 11 10 10 17 16 16 15 14 14 14 13 13 13 13 13 12 10 9 9 8 6 6 6 3 5 7 8 4 1 -1
Height
672 677 683 690 693 700 705 711 711 716 721 724 728 730 733 734 735 739 748 755 764 770 776 781 787 795 800 805 812 816 821 825
674 676 682 688 694 698 703 708 709 713 718 723 726 729 733 735 737 742 746 754 760 766 773 778 784 790 795 802 809 813 820 824
673 677 680 684 690 696 700 705 707 711 716 721 725 728 733 736 740 743 748 750 756 762 768 774 780 787 794 798 802 809 816 820
674 678 678 682 688 691 696 701 704 709 715 719 724 728 731 737 740 743 746 750 754 757 762 770 776 782 788 793 799 803 809 816
664 673 676 677 683 689 694 697 701 707 713 717 721 724 728 730 734 738 742 746 751 754 759 765 773 778 784 789 794 799 805 811
662 659 664 671 678 685 692 696 699 705 710 715 718 722 726 729 732 734 736 740 747 751 757 762 769 775 779 786 791 796 801 805
652 657 663 671 678 685 689 693 697 702 708 712 715 718 721 724 727 729 728 732 739 747 752 758 765 770 775 782 788 794 799 806
649 656 659 668 674 681 686 690 694 699 705 710 713 715 717 719 720 720 723 725 732 742 749 754 761 767 772 779 786 794 801 805
638 643 651 661 670 676 681 685 690 695 701 706 709 711 713 715 714 716 718 723 727 736 746 755 758 763 771 779 786 792 798 803
632 641 649 657 666 670 675 681 686 691 698 703 706 707 709 711 714 716 718 723 728 736 744 751 755 763 769 778 785 791 796 801
642 639 644 653 660 667 673 678 682 687 695 701 704 708 710 713 715 718 720 725 729 734 741 749 755 762 771 777 785 789 794 797
645 647 644 650 657 663 668 675 681 685 692 698 703 707 710 713 715 718 723 726 731 736 742 746 753 761 768 775 781 786 790 794
644 646 657 646 652 660 665 671 678 681 687 694 700 705 708 710 714 717 721 727 732 738 743 747 753 761 767 772 778 782 786 790
646 643 650 660 649 656 660 666 673 677 682 690 696 702 705 709 712 717 722 727 732 738 743 749 753 758 764 769 774 779 782 785
649 649 651 655 663 651 656 662 668 673 680 687 692 698 703 706 711 716 722 727 731 736 740 745 751 757 762 767 772 776 780 783
652 650 648 652 655 660 660 659 664 670 677 683 689 695 703 708 711 715 720 725 730 735 739 744 750 755 759 764 768 772 775 777
659 653 650 641 646 653 661 668 661 666 674 680 687 692 700 706 712 715 720 726 732 736 741 744 748 752 755 759 764 767 769 773
668 667 665 656 641 639 651 662 671 666 669 676 683 690 697 704 710 715 719 722 728 733 738 741 745 748 751 754 759 763 767 772
672 666 661 656 648 642 647 655 664 672 670 671 679 687 694 701 707 711 715 719 724 729 735 740 744 749 750 752 756 760 767 776
Wind_Speed
21 26 29 34 35 30 25 23 21 18 13 14 19 20 23 24 31 33 39 42 41 40 40 40 42 39 41 40 36 30 30 27
14 24 30 33 33 30 27 26 22 22 20 18 21 22 26 25 29 38 45 43 44 41 40 43 44 39 45 43 34 30 31 28
14 21 26 31 33 31 29 26 24 22 22 20 17 20 27 32 30 35 38 45 47 44 40 41 45 37 43 42 37 31 27 32
13 15 22 26 29 33 31 28 26 23 20 19 13 17 17 26 28 31 36 40 44 42 44 40 42 42 39 42 38 36 26 34
17 16 16 27 28 32 29 30 27 23 21 21 20 17 13 16 27 32 35 42 44 43 42 42 39 41 39 41 41 38 31 27
20 22 24 26 32 31 30 29 27 24 23 22 21 20 21 22 24 24 37 37 40 40 42 43 40 37 39 37 37 39 32 29
19 15 21 22 27 30 28 28 27 25 24 22 22 20 21 22 25 26 22 41 37 37 36 40 39 37 40 38 37 34 30 21
16 17 17 22 26 28 30 28 25 27 24 23 23 21 22 25 26 25 34 26 35 36 37 38 38 41 39 38 33 28 27 28
21 21 18 22 27 28 28 28 26 28 25 24 21 17 18 16 19 23 27 28 33 38 37 33 39 39 40 36 34 26 23 24
20 18 17 24 27 29 29 29 27 28 26 26 24 17 15 15 17 21 26 29 32 40 40 34 38 37 36 34 28 25 23 24
10 16 17 25 28 27 29 29 27 28 26 26 26 24 22 19 20 22 27 27 29 35 38 41 36 33 29 26 26 25 26 29
7 9 16 22 24 27 29 29 27 26 26 26 26 27 25 22 23 24 27 28 28 31 32 33 32 31 30 30 30 30 31 32
6 7 6 19 24 25 28 28 27 28 27 27 26 28 26 25 22 23 25 27 28 31 31 28 29 27 30 32 32 28 30 32
8 8 10 10 21 24 26 28 27 29 28 28 26 28 29 27 27 27 27 28 28 28 30 28 28 29 31 31 33 33 32 32
5 3 6 7 12 22 25 27 28 30 28 25 27 27 29 29 28 29 29 28 29 29 30 32 32 32 33 35 34 33 31 24
13 3 4 10 10 12 17 26 29 30 29 27 25 27 28 28 28 27 26 28 28 27 28 28 30 30 29 30 30 26 24 20
15 12 5 9 13 16 15 17 28 32 29 28 26 26 28 29 27 29 28 25 23 25 24 23 23 22 25 27 27 24 19 18
14 13 10 14 12 27 24 18 18 27 28 29 28 29 27 29 28 26 25 26 24 23 21 21 17 14 15 20 22 20 20 19
11 11 11 16 16 15 23 23 21 20 24 28 28 28 26 28 26 26 25 27 26 25 22 20 20 18 22 25 24 25 27 26
Wind_Direction
193 175 171 167 168 167 171 175 169 169 168 178 197 186 179 166 174 166 166 176 179 180 179 177 181 179 178 177 179 186 186 182
164 148 151 154 163 167 175 173 170 172 167 167 161 172 178 174 169 172 178 182 180 181 179 179 183 180 182 182 183 188 191 185
148 149 151 156 164 173 176 179 176 179 181 178 180 166 187 185 183 185 187 187 187 182 179 182 186 182 187 186 185 179 185 183
156 165 160 157 168 175 180 182 176 180 186 182 184 191 176 190 191 191 191 193 188 184 185 184 185 188 187 189 189 181 176 180
171 170 167 170 173 177 183 180 180 184 188 184 183 190 196 201 197 200 197 198 193 186 185 186 189 189 190 191 191 183 177 176
188 182 177 168 166 173 178 180 180 187 189 196 197 210 217 222 225 204 205 197 194 189 187 185 189 190 189 188 186 186 182 179
200 172 152 154 163 170 171 176 174 183 191 197 202 210 218 214 222 222 216 193 185 190 189 189 187 186 187 182 181 183 187 195
174 162 161 162 168 172 172 175 173 183 194 201 204 211 208 209 217 208 198 191 179 178 186 188 188 187 185 187 184 186 183 183
182 172 167 165 171 173 172 172 169 180 189 201 204 197 197 204 193 189 167 172 168 172 173 173 179 186 185 185 183 179 189 196
172 161 166 166 174 177 173 171 169 178 185 196 199 197 200 188 181 161 166 177 175 178 173 163 165 166 169 176 185 199 207 199
197 168 168 173 175 172 173 172 169 174 181 194 197 197 192 185 177 165 165 166 167 172 179 180 172 172 177 191 200 201 208 214
199 227 169 167 169 169 169 173 171 170 177 187 192 197 190 185 182 181 180 178 176 176 175 173 175 184 204 205 210 213 216 224
258 178 209 166 168 171 170 171 175 175 179 183 191 193 193 190 189 188 187 185 185 186 185 191 192 188 197 205 208 213 224 232
339 157 179 226 171 174 173 173 177 177 180 183 189 192 195 193 193 195 191 188 188 186 188 185 189 196 201 211 216 221 230 234
288 146 178 180 236 176 175 177 178 178 176 179 186 191 196 195 193 192 192 191 189 193 196 200 203 207 211 218 225 230 234 234
346 188 175 180 177 215 196 178 176 178 179 186 185 188 195 196 194 192 193 194 197 200 200 206 211 214 217 221 224 227 224 219
8 1 321 184 174 187 210 211 178 176 179 184 185 180 189 195 198 196 192 192 193 195 197 195 196 197 212 218 217 212 189 172
10 357 353 328 206 179 190 201 202 181 177 181 182 185 184 189 196 196 186 185 183 176 167 168 155 152 171 193 197 163 149 141
8 355 348 347 333 203 169 181 192 199 187 178 179 182 179 184 184 174 162 160 154 150 145 138 132 127 145 150 155 138 125 116